Lexington Weather

Lexington, Massachusetts, USA

39°F
1/28/2023 9:07pm 
  • Lexington Conditions: Clear
  • Temperature: 38.8°F / 3.8°CColder 0.8°F than last hour.
  • Dew Point: 27.3°FIncreased 0.5°Fsince last hour.
  • Relative Humidity: 63%Increased 3.0% since last hour.
  • Wind: Calm, 10-min avg: Calm, gust: None
  • Barometer: 30.24 inRising 0.02  inHg/hr Rising Slowly
  • Visibility: 10 miles
  • Rain Today: 0.00 in
  •   

Regional Weather Roundup
for Boston, MA

        
000
ASUS41 KBOX 250110
RWRBOX

REGIONAL WEATHER ROUNDUP
NATIONAL WEATHER SERVICE BOSTON/NORTON MA
800 PM EST TUE JAN 24 2023

NOTE:  "FAIR" INDICATES FEW OR NO CLOUDS BELOW 12,000 FEET WITH NO 
SIGNIFICANT WEATHER AND/OR OBSTRUCTIONS TO VISIBILITY.

MAZALL-250200-
EASTERN MASSACHUSETTS
  
CITY           SKY/WX    TMP DP  RH WIND       PRES   REMARKS
BOSTON         PTCLDY    36  28  73 W15G24    30.14R WCI  27          
BEVERLY        CLEAR     33  27  78 W7        30.12R WCI  27          
LAWRENCE       PTCLDY    34  27  75 W7        30.14R WCI  28          
BEDFORD        CLEAR     34  27  75 W8        30.13R WCI  27          
NORWOOD        CLEAR     35  27  72 W7        30.16R WCI  29          
MARSHFIELD     CLEAR     34  28  80 W9        30.14R WCI  26          
PLYMOUTH       CLEAR     33  26  75 SW7       30.15R WCI  27          
TAUNTON          N/A    N/A N/A N/A MISG      30.16R                  
NEW BEDFORD    CLEAR     35  27  72 W7        30.16R WCI  29          
$$

MAZALL-250200-
CAPE COD AND THE ISLANDS
  
CITY           SKY/WX    TMP DP  RH WIND       PRES   REMARKS
FALMOUTH       CLEAR     34  25  69 W9G18     30.16R WCI  26          
HYANNIS        CLEAR     34  26  72 W8        30.15R WCI  27          
CHATHAM        CLEAR     36  25  64 W5        30.16R                  
PROVINCETOWN   CLEAR     37  30  75 W17G23    30.14R WCI  27          
NANTUCKET      CLEAR     37  25  61 W10       30.18R WCI  30          
MARTHAS VNYRD  PTCLDY    38  26  62 W7        30.18R                  
$$
 
MAZALL-250200-
CENTRAL AND WESTERN MASSACHUSETTS
  
CITY           SKY/WX    TMP DP  RH WIND       PRES   REMARKS
WORCESTER      CLOUDY    33  26  75 W8        30.12R WCI  26          
FITCHBURG      MOCLDY    33  26  75 W5        30.15R WCI  29          
ORANGE         CLOUDY    33  28  81 SW7       30.14R WCI  27          
SPRINGFIELD    PTCLDY    34  25  69 W9        30.15R WCI  27          
WESTFIELD      CLOUDY    35  26  69 W6        30.18R WCI  30          
NORTH ADAMS    CLOUDY    34  26  72 W17       30.15R WCI  23          
PITTSFIELD     CLOUDY    31  25  78 W10       30.14R WCI  22          
$$
 
RIZALL-250200-
RHODE ISLAND
  
CITY           SKY/WX    TMP DP  RH WIND       PRES   REMARKS
PROVIDENCE     CLEAR     34  26  72 SW8       30.17R WCI  27          
NEWPORT        CLEAR     35  26  69 W5        30.17R WCI  31          
BLOCK ISLAND   CLEAR     37  25  61 W14G22    30.20R WCI  28          
SMITHFIELD     CLEAR     33  26  75 W7        30.16R WCI  27          
WESTERLY       PTCLDY    36  25  64 W3        30.20R                  
$$
 
CTZALL-250200-
CONNECTICUT
  
CITY           SKY/WX    TMP DP  RH WIND       PRES   REMARKS
BRADLEY INTL   PTCLDY    35  25  66 W14       30.17R WCI  26          
HARTFORD       PTCLDY    37  25  61 SW5       30.19R                  
BRIDGEPORT     CLOUDY    40  23  50 W12G23    30.22R                  
DANBURY        CLOUDY    38  23  55 VRB6      30.21R                  
GROTON         PTCLDY    38  26  62 W8        30.20R                  
NEW HAVEN      CLOUDY    42  27  55 VRB5      30.21R                  
CHESTER        CLOUDY   N/A N/A N/A VRB5      30.19R                  
MERIDEN        CLOUDY    38  24  57 W5        30.20R                  
WILLIMANTIC    CLEAR     33  26  75 CALM      30.18R                  
OXFORD         CLOUDY    35  25  66 W6        30.19R WCI  30          
$$

MEZ002-015-021-024-NHZ003-005-008-011-012-014-VTZ005-008-250200-
NORTHERN NEW ENGLAND
  
CITY           SKY/WX    TMP DP  RH WIND       PRES   REMARKS
PORTLAND ME    CLOUDY    35  27  72 W10       30.06R WCI  27          
BANGOR ME      CLOUDY    34  25  69 SW5       30.00R WCI  30          
CONCORD NH     CLOUDY    33  26  75 VRB5      30.10R WCI  29          
MANCHESTER NH  MOCLDY    35  28  75 W7        30.10R WCI  29          
NASHUA NH      MOCLDY    34  32  92 W9        30.13R WCI  27          
PORTSMOUTH NH  PTCLDY    33  28  79 W9        30.09R WCI  26          
JAFFREY NH     CLOUDY    33  27  78 W3        30.10R                  
KEENE NH       CLOUDY    34  28  79 SW8       30.13R WCI  27          
BURLINGTON VT  CLOUDY    35  26  69 NW8       30.10R WCI  29          
MT. WASHINGTON SNOW      10  10 100 W67G77      N/A  VSB 0   WCI -19  
$$

NYZ052-076-250200-
EASTERN NEW YORK
  
CITY           SKY/WX    TMP DP  RH WIND       PRES   REMARKS
ALBANY         FLURRIES  36  26  67 W7        30.20R WCI  30          
NEW YORK CITY  MOCLDY    41  23  48 NW13G22   30.25R                  
$$
 
ANZALL-250200-
MARINE OBSERVATIONS
  
STATION/POSITION TIME  TEMP    WIND        PRES    VSBY  WAVE
                       AIR SEA DIR/SP/G                  HT/PER
                 (UTC) (F)     (DEG/KT/KT) (MB)    (MI)  (FT/S)
BOSTON BUOY      0040      42                N/A           3/ 4
BUZZARDS BAY     0000   39     290/ 16/ 18 1021.9R
NANTUCKET SOUND  0050   41 42  270/ 17/ 23 1021.5R         2/ 4
MASS BAY-STELLWA 2304   38 42  270/ 19/ 23 1018.0R  1 7/8
ISLE OF SHOALS   0000   36     270/ 21/ 23 1017.0R
S OF BLOCK IS    0026      44                N/A           6/ 7
$$

......................KEY.........................
  SKY/WX - SKY CONDITION/PRESENT WEATHER
  TMP    - TEMPERATURE IN FAHRENHEIT
  DWPT   - DEWPOINT IN FAHRENHEIT
  RH     - RELATIVE HUMIDITY IN PERCENT
  WIND   - DIRECTION AND SPEED IN MPH
  PRES   - MEAN SEA LEVEL PRESSURE IN INCHES OF HG
  WCI    - WIND CHILL INDEX
  VSB    - VISIBILITY IN MILES
  HX     - HEAT INDEX
  TC     - TEMPERATURE IN CELSIUS
  VRB    - VARIABLE WIND DIRECTION
  N/A    - NOT AVAILABLE
  
      

Other recent Regional Weather Roundups

Sat Jan 28, 8:10pm EST

Sat Jan 28, 7:10pm EST

Sat Jan 28, 6:10pm EST

Sat Jan 28, 5:10pm EST

Sat Jan 28, 4:10pm EST

Sat Jan 28, 3:10pm EST

Sat Jan 28, 2:10pm EST

Sat Jan 28, 1:10pm EST

Sat Jan 28, 12:10pm EST

Sat Jan 28, 11:10am EST

Sat Jan 28, 10:10am EST

Sat Jan 28, 9:10am EST

Sat Jan 28, 8:10am EST

Sat Jan 28, 7:10am EST

Sat Jan 28, 6:10am EST

Sat Jan 28, 5:10am EST

Sat Jan 28, 4:10am EST

Sat Jan 28, 3:10am EST

Sat Jan 28, 2:10am EST

Sat Jan 28, 1:10am EST

Sat Jan 28, 12:10am EST

Fri Jan 27, 11:10pm EST

Fri Jan 27, 10:10pm EST

Fri Jan 27, 9:10pm EST

Fri Jan 27, 8:10pm EST

Fri Jan 27, 7:10pm EST

Fri Jan 27, 6:10pm EST

Fri Jan 27, 5:10pm EST

Fri Jan 27, 4:10pm EST

Fri Jan 27, 3:10pm EST

Fri Jan 27, 2:10pm EST

Fri Jan 27, 1:10pm EST

Fri Jan 27, 12:10pm EST

Fri Jan 27, 11:10am EST

Fri Jan 27, 10:10am EST

Fri Jan 27, 9:10am EST

Fri Jan 27, 8:10am EST

Fri Jan 27, 7:10am EST

Fri Jan 27, 6:10am EST

Fri Jan 27, 5:10am EST

Fri Jan 27, 4:10am EST

Fri Jan 27, 3:10am EST

Fri Jan 27, 2:10am EST

Fri Jan 27, 1:10am EST

Fri Jan 27, 12:10am EST

Thu Jan 26, 11:10pm EST

Thu Jan 26, 10:10pm EST

Thu Jan 26, 9:10pm EST

Thu Jan 26, 8:10pm EST

Thu Jan 26, 7:10pm EST

Thu Jan 26, 6:10pm EST

Thu Jan 26, 5:10pm EST

Thu Jan 26, 4:10pm EST

Thu Jan 26, 3:10pm EST

Thu Jan 26, 2:10pm EST

Thu Jan 26, 1:10pm EST

Thu Jan 26, 12:10pm EST

Thu Jan 26, 11:10am EST

Thu Jan 26, 10:10am EST

Thu Jan 26, 9:10am EST

Thu Jan 26, 8:10am EST

Thu Jan 26, 7:10am EST

Thu Jan 26, 6:10am EST

Thu Jan 26, 5:10am EST

Thu Jan 26, 4:10am EST

Thu Jan 26, 3:10am EST

Thu Jan 26, 2:10am EST

Thu Jan 26, 1:10am EST

Thu Jan 26, 12:10am EST

Wed Jan 25, 11:10pm EST

Wed Jan 25, 10:10pm EST

Wed Jan 25, 9:10pm EST

Wed Jan 25, 8:10pm EST

Wed Jan 25, 7:10pm EST

Wed Jan 25, 6:10pm EST

Wed Jan 25, 5:10pm EST

Wed Jan 25, 4:10pm EST

Wed Jan 25, 3:10pm EST

Wed Jan 25, 2:10pm EST

Wed Jan 25, 1:10pm EST

Wed Jan 25, 12:10pm EST

Wed Jan 25, 11:10am EST

Wed Jan 25, 10:10am EST

Wed Jan 25, 9:10am EST

Wed Jan 25, 8:10am EST

Wed Jan 25, 7:10am EST

Wed Jan 25, 6:10am EST

Wed Jan 25, 5:10am EST

Wed Jan 25, 4:10am EST

Wed Jan 25, 3:10am EST

Wed Jan 25, 2:10am EST

Wed Jan 25, 1:10am EST

Wed Jan 25, 12:10am EST

Tue Jan 24, 11:10pm EST

Tue Jan 24, 10:10pm EST

Tue Jan 24, 9:10pm EST

Tue Jan 24, 7:10pm EST

Tue Jan 24, 6:10pm EST

Tue Jan 24, 5:10pm EST

Tue Jan 24, 4:10pm EST

Tue Jan 24, 3:10pm EST

Tue Jan 24, 2:10pm EST

Tue Jan 24, 1:10pm EST

Tue Jan 24, 12:10pm EST

Tue Jan 24, 11:10am EST

Tue Jan 24, 10:10am EST

Tue Jan 24, 9:10am EST

Tue Jan 24, 8:10am EST

Tue Jan 24, 7:10am EST

Tue Jan 24, 6:10am EST

Tue Jan 24, 5:10am EST

Tue Jan 24, 4:10am EST

Tue Jan 24, 3:10am EST

Tue Jan 24, 2:10am EST

Tue Jan 24, 1:10am EST

Tue Jan 24, 12:10am EST

Mon Jan 23, 11:10pm EST

Mon Jan 23, 10:10pm EST

Mon Jan 23, 9:10pm EST

Mon Jan 23, 8:10pm EST

Mon Jan 23, 7:10pm EST

Mon Jan 23, 6:10pm EST

Mon Jan 23, 5:10pm EST

Mon Jan 23, 4:10pm EST

Mon Jan 23, 3:10pm EST

Mon Jan 23, 2:10pm EST

Mon Jan 23, 1:10pm EST

Mon Jan 23, 12:10pm EST

Mon Jan 23, 11:10am EST

Mon Jan 23, 10:10am EST

Mon Jan 23, 9:10am EST

Mon Jan 23, 8:10am EST

Mon Jan 23, 7:10am EST

Mon Jan 23, 6:10am EST

Mon Jan 23, 5:10am EST

Mon Jan 23, 4:10am EST

Mon Jan 23, 3:10am EST

Mon Jan 23, 2:10am EST

Mon Jan 23, 1:10am EST

Mon Jan 23, 12:10am EST

Sun Jan 22, 11:10pm EST

Sun Jan 22, 10:10pm EST

Sun Jan 22, 9:10pm EST

Sun Jan 22, 8:10pm EST

Sun Jan 22, 7:10pm EST

Sun Jan 22, 6:10pm EST

Sun Jan 22, 5:10pm EST

Sun Jan 22, 4:10pm EST

Sun Jan 22, 3:10pm EST

Sun Jan 22, 2:10pm EST

Sun Jan 22, 1:10pm EST

Sun Jan 22, 12:10pm EST

Sun Jan 22, 11:10am EST

Sun Jan 22, 10:10am EST

Sun Jan 22, 9:10am EST

Sun Jan 22, 8:10am EST

Sun Jan 22, 7:10am EST

Sun Jan 22, 6:10am EST

Sun Jan 22, 5:10am EST

Sun Jan 22, 4:10am EST

Sun Jan 22, 3:10am EST

Sun Jan 22, 2:10am EST

Sun Jan 22, 1:10am EST

Sun Jan 22, 12:10am EST

Sat Jan 21, 11:10pm EST

Sat Jan 21, 10:10pm EST

Sat Jan 21, 9:10pm EST